Simultaneous Nadir Overpasses (SNOs) Predictions

Prediction of SNOs between GOES-17 and TERRA Satellite Orbit:

Table of predicted SNOs for the next 14.0 days since TLE Epoch: 9/16/2023
Index Date Time (GOES-17) GOES-17 Lat,Lon TERRA Lat,Lon Distance(km) Time Diff (sec)
1 09/17/2023 04:47:26 -0.01,-104.69 0.59,-101.87 320.31 80
2 09/17/2023 17:07:35 0.01,-104.70 0.46,-106.76 234.75 80
3 09/19/2023 16:53:48 0.01,-104.70 -0.39,-102.79 216.63 80
4 09/20/2023 05:14:07 -0.00,-104.69 -0.64,-107.73 345.87 80
5 09/22/2023 04:54:59 -0.00,-104.68 0.17,-103.75 104.85 80
6 09/22/2023 17:15:08 0.00,-104.69 0.85,-108.65 450.94 80
7 09/24/2023 16:58:40 0.00,-104.68 0.01,-104.68 0.98 80
8 09/26/2023 16:44:52 0.01,-104.67 -0.85,-100.70 450.88 80
9 09/27/2023 05:05:09 -0.00,-104.66 -0.23,-105.63 111.24 80
10 09/29/2023 04:46:01 -0.01,-104.65 0.60,-101.65 340.43 80
11 09/29/2023 17:06:09 0.01,-104.66 0.41,-106.55 215.41 80
